STARLINK-35856 (67013 NORAD) Tracking and Keplerian Element Data

This shows tracking and keplerian element data for the satellite.

Feedback or suggestion? Click here.




ElementValue
Catalog67013
NameSTARLINK-35856
Epoch Orbit132
Epoch Day354.25003472
Epoch Year2025
RAAN301.9613
Inclination69.9938
Eccentricity0.000391
Argument of Perigee272.219
Mean Anonmoly316.9266
Mean Motion15.92455926
Decay Rate-0.01161678
L11 67013U 25293L 25354.25003472 -.01161678 40042-3 -34221-2 0 9999
L22 67013 69.9938 301.9613 0003910 272.2190 316.9266 15.92455926 1329



Live tracking and technical data element details for STARLINK-35856 (NORAD 67013). STARLINK-35856 can be tracked NOW for your location showing map with azimuth and elevation plus other details from your city location.







IsCatalogInMostPopularTable: catalog: 67013, numindb: 12
Update: records affected: 1



GetName: 67013 STARLINK-35856

Hit Count: updated at: Fri, 16 Jan 2026 09:03:40 GMT